星链-3240 (STARLINK-3240 )

导读 | 豆包AI

STARLINK-3240是美国太空探索技术公司(SpaceX)于2021年12月2日发射的星链(Starlink)卫星,星链计划旨在构建全球卫星互联网星座。该卫星属于低轨卫星,承担着为全球偏远及地面网络覆盖不足区域提供高速互联网接入服务的任务,助力SpaceX推进低轨通信星座的组网建设。

Basic Information
目录编号:
49728
目录名称:
STARLINK-3240
国际标识:
2021-115E
轨道中心:
EARTH
卫星名称:
星链-3240
卫星全名:
星链-3240 (STARLINK-3240 )
卫星状态:
在轨 (已飞行1611 天)
发射日期:
2021-12-02 UTC
国别 :
美国 (US)
星等 :
--
Orbit Information
数据来源 国际轨道数据 AOE轨道数据
星历时间 2026-05-01T03:56:30+0800
8小时前
查看轨道信息
2026-04-27T11:00:00+0800
4天前
查看轨道信息
半长轴 6917.887km 6917.879km
偏心率 0.0001315 0.0001673
轨道倾角 53.218° 53.217°
近地点辐角 88.112° 83.787°
升交点赤经 285.049° 301.685°
平近点角 272.002° 295.587°
近地点 538.84km 538.584km
远地点 540.66km 540.9km
周期 95.438分钟 95.438分钟
每日圈数 15.088381 15.088406
Detailed Information
固有亮度:
5
最大亮度:
2.5
卫星平台:
Starlink v1.5
覆盖范围:
全球
运营商:
太空探索技术公司
运营商所在国:
美国
制造商(研发单位):
太空探索技术公司
制造商所在国:
美国
使用方式:
暂无
Satellite Introduction
星链(Starlink)计划是由太空探索技术公司(SpaceX)提出的一个巨型低轨卫星互联网星座项目,计划在2019年至2024年间在太空搭建由约1.2万颗卫星组成的“星链”网络,其中1584颗将部署在地球上空550千米处的近地轨道,并从2020年开始工作。该卫星仍在工作。
2D Orbit Map
3D Orbit Map
Orbit Altitude Analysis Chart
Orbit Inclination Analysis Chart
Orbit Comprehensive Analysis Chart
View Comprehensive Chart